TimeEET,TemperatureF,Dew PointF,Humidity,Sea Level PressureIn,VisibilityMPH,Wind Direction,Wind SpeedMPH,Gust SpeedMPH,PrecipitationIn,Events,Conditions,WindDirDegrees,DateUTC
1:50 AM,48.2,42.8,82,30.18,-9999.0,Calm,Calm,-,N/A,,Clear,0,2012-11-10 23:50:00
2:00 AM,48,43,77,30.19,6,Calm,Calm,,,,,,2012-11-11 00:00:00
3:50 AM,46.4,41.0,81,30.18,-9999.0,Calm,Calm,-,N/A,,Clear,0,2012-11-11 01:50:00
4:50 AM,46.4,41.0,81,30.18,-9999.0,Calm,Calm,-,N/A,,Clear,0,2012-11-11 02:50:00
5:50 AM,48.2,41.0,76,30.18,-9999.0,Calm,Calm,-,N/A,,Clear,0,2012-11-11 03:50:00
6:50 AM,46.4,41.0,81,30.18,6.2,Calm,Calm,-,N/A,,Partly Cloudy,0,2012-11-11 04:50:00
7:20 AM,46.4,41.0,81,30.18,6.2,Calm,Calm,-,N/A,,Partly Cloudy,0,2012-11-11 05:20:00
7:50 AM,44.6,41.0,87,30.21,-9999.0,Calm,Calm,-,N/A,,Clear,0,2012-11-11 05:50:00
8:00 AM,45,40,77,30.21,6,Calm,Calm,,,,Clear,,2012-11-11 06:00:00
8:20 AM,51.8,44.6,76,30.21,-9999.0,Calm,Calm,-,N/A,,Clear,0,2012-11-11 06:20:00
8:50 AM,55.4,46.4,72,30.21,6.2,Calm,Calm,-,N/A,,Partly Cloudy,0,2012-11-11 06:50:00
9:20 AM,57.2,46.4,67,30.21,6.2,Calm,Calm,-,N/A,,Partly Cloudy,0,2012-11-11 07:20:00
9:50 AM,62.6,48.2,59,30.24,6.2,Calm,Calm,-,N/A,,Partly Cloudy,0,2012-11-11 07:50:00
10:20 AM,64.4,44.6,49,30.24,6.2,Calm,Calm,-,N/A,,Partly Cloudy,0,2012-11-11 08:20:00
10:50 AM,66.2,48.2,52,30.24,6.2,Calm,Calm,-,N/A,,Partly Cloudy,0,2012-11-11 08:50:00
11:20 AM,66.2,48.2,52,30.24,6.2,Calm,Calm,-,N/A,,Partly Cloudy,0,2012-11-11 09:20:00
11:50 AM,66.2,48.2,52,30.24,6.2,Calm,Calm,-,N/A,,Scattered Clouds,0,2012-11-11 09:50:00
12:20 PM,66.2,48.2,52,30.24,6.2,Calm,Calm,-,N/A,,Scattered Clouds,0,2012-11-11 10:20:00
12:50 PM,69.8,48.2,46,30.21,6.2,Calm,Calm,-,N/A,,Scattered Clouds,0,2012-11-11 10:50:00
1:20 PM,69.8,48.2,46,30.21,6.2,Calm,Calm,-,N/A,,Scattered Clouds,0,2012-11-11 11:20:00
1:50 PM,71.6,46.4,41,30.18,6.2,Calm,Calm,-,N/A,,Scattered Clouds,0,2012-11-11 11:50:00
2:00 PM,71,46,30,30.21,6,Calm,Calm,,,,Partly Cloudy,,2012-11-11 12:00:00
2:20 PM,71.6,46.4,41,30.18,6.2,Calm,Calm,-,N/A,,Scattered Clouds,0,2012-11-11 12:20:00
2:50 PM,69.8,48.2,46,30.18,6.2,Calm,Calm,-,N/A,,Scattered Clouds,0,2012-11-11 12:50:00
3:20 PM,68.0,48.2,49,30.18,6.2,Calm,Calm,-,N/A,,Scattered Clouds,0,2012-11-11 13:20:00
3:50 PM,66.2,48.2,52,30.18,6.2,NE,6.9,-,N/A,,Scattered Clouds,40,2012-11-11 13:50:00
4:20 PM,66.2,48.2,52,30.18,6.2,NE,6.9,-,N/A,,Scattered Clouds,40,2012-11-11 14:20:00
4:50 PM,64.4,46.4,52,30.18,6.2,NNE,5.8,-,N/A,,Scattered Clouds,30,2012-11-11 14:50:00
5:20 PM,64.4,46.4,52,30.18,6.2,NNE,5.8,-,N/A,,Scattered Clouds,30,2012-11-11 15:20:00
5:50 PM,60.8,48.2,63,30.21,6.2,NNE,5.8,-,N/A,,Scattered Clouds,30,2012-11-11 15:50:00
6:20 PM,60.8,48.2,63,30.21,6.2,NNE,5.8,-,N/A,,Scattered Clouds,30,2012-11-11 16:20:00
6:50 PM,60.8,46.4,59,30.21,6.2,NE,4.6,-,N/A,,Scattered Clouds,40,2012-11-11 16:50:00
7:20 PM,59.0,46.4,63,30.21,6.2,NE,4.6,-,N/A,,Scattered Clouds,40,2012-11-11 17:20:00
7:50 PM,57.2,46.4,67,30.21,6.2,Calm,Calm,-,N/A,,Scattered Clouds,0,2012-11-11 17:50:00
8:00 PM,58,46,55,30.23,6,Calm,Calm,,,,Partly Cloudy,,2012-11-11 18:00:00
8:20 PM,57.2,46.4,67,30.21,6.2,Calm,Calm,-,N/A,,Scattered Clouds,0,2012-11-11 18:20:00
8:50 PM,55.4,46.4,72,30.24,6.2,Calm,Calm,-,N/A,,Scattered Clouds,0,2012-11-11 18:50:00
9:20 PM,55.4,46.4,72,30.24,6.2,Calm,Calm,-,N/A,,Scattered Clouds,0,2012-11-11 19:20:00
9:50 PM,53.6,48.2,82,30.24,6.2,Calm,Calm,-,N/A,,Scattered Clouds,0,2012-11-11 19:50:00
10:20 PM,53.6,48.2,82,30.24,6.2,Calm,Calm,-,N/A,,Scattered Clouds,0,2012-11-11 20:20:00
10:50 PM,51.8,46.4,82,30.24,6.2,Calm,Calm,-,N/A,,Scattered Clouds,0,2012-11-11 20:50:00
11:20 PM,51.8,46.4,82,30.24,6.2,Calm,Calm,-,N/A,,Scattered Clouds,0,2012-11-11 21:20:00
11:50 PM,51.8,46.4,82,30.24,6.2,Calm,Calm,-,N/A,,Scattered Clouds,0,2012-11-11 21:50:00